Vorticity
7 7 6 6 6 6 6 6 6 6 6 6 6 5 5 6 6 6 6 6 6 6 6 6 6 6 6 6 6 6 6 6 6 6 6 6 5 5 5 5 5 5 5 5 5 5 5 5 5 4 4 4 4 4 4 4 4 4 4 4 4 4 4 4 4 4 5 5 5 5 5 5 5 5 5 4 4 4 4 4 4 3 3 3 3 3 3 3 3 3 4 4 5 5 5 6 6 6 6 6 7 7 7
7 7 7 7 7 7 7 7 7 7 7 7 6 6 6 6 6 6 6 6 6 6 6 6 6 6 6 6 6 6 6 6 6 6 6 6 6 6 6 6 6 6 5 5 5 5 5 5 5 5 5 5 5 5 5 5 4 4 4 4 4 4 4 4 4 4 4 4 4 5 5 5 5 5 5 5 5 5 4 4 4 4 4 3 3 3 3 3 3 3 3 3 3 4 4 5 5 5 6 6 6 7 7
8 8 8 8 8 8 8 8 8 7 7 7 7 7 7 7 7 7 7 7 7 7 6 6 6 6 6 6 6 6 6 6 6 6 6 6 6 6 6 6 6 6 6 6 6 6 6 6 6 6 6 6 6 6 6 6 5 5 5 5 5 4 4 4 4 4 4 4 4 4 4 5 5 5 5 5 5 5 5 5 4 4 4 4 4 4 3 3 3 3 3 3 3 3 3 4 4 4 5 5 5 6 6
8 8 8 8 8 8 8 8 8 8 8 7 7 7 7 7 7 7 6 6 6 6 6 6 6 6 6 6 6 6 6 6 6 6 6 6 6 6 6 6 7 7 7 7 6 6 6 6 7 7 7 7 7 7 7 6 6 6 6 6 6 5 5 5 5 4 4 4 4 4 4 4 5 5 5 5 5 5 5 5 5 4 4 4 4 4 4 4 3 3 3 3 3 3 3 3 3 3 4 4 4 5 5
8 8 8 8 8 8 7 7 7 7 7 7 7 7 6 6 6 6 6 6 6 6 6 6 6 6 6 6 6 6 6 6 6 6 6 6 6 6 6 6 7 7 7 7 7 7 7 7 7 7 7 7 7 7 7 7 7 7 7 7 7 7 6 6 6 5 5 5 5 5 5 5 5 5 5 5 5 5 5 5 5 5 5 4 4 4 4 4 4 4 3 3 3 3 3 3 3 3 3 3 3 4 4
7 7 7 7 7 6 6 6 6 6 6 6 6 6 6 6 6 6 5 5 5 5 5 5 6 6 6 6 6 6 6 6 6 6 6 6 6 6 6 6 6 7 7 7 7 7 7 7 7 7 7 7 8 8 8 8 8 8 8 8 8 8 7 7 7 7 6 6 6 5 5 5 5 5 5 5 5 5 5 5 5 5 5 5 4 4 4 4 4 4 4 4 3 3 3 3 3 3 3 3 3 3 3
6 6 6 5 5 5 5 5 5 5 5 5 5 5 5 5 5 5 5 5 5 5 5 5 5 5 5 5 6 6 6 6 6 6 6 6 6 6 6 6 6 6 7 7 7 7 7 8 8 8 8 8 8 8 8 8 8 8 8 8 8 8 8 8 8 8 8 7 7 7 6 6 6 6 5 5 5 5 5 5 5 5 5 5 5 5 4 4 4 4 4 4 4 4 3 3 3 3 3 3 3 3 3
4 4 4 4 4 4 4 4 4 4 4 4 5 5 5 5 5 5 5 5 5 5 5 5 5 5 5 5 5 5 5 5 5 5 5 5 5 5 5 5 6 6 6 6 7 7 7 7 8 8 8 8 8 8 8 8 8 8 9 9 9 9 9 9 9 9 9 8 8 8 7 7 7 6 6 6 6 6 5 5 5 5 5 5 5 5 5 4 4 4 4 4 4 4 4 3 3 3 3 3 3 3 3
4 4 4 4 4 4 4 4 4 4 4 4 5 5 5 5 5 5 5 5 5 5 5 5 5 5 5 5 5 5 5 5 5 5 5 5 5 5 5 5 5 5 5 6 6 6 6 7 7 7 7 8 8 8 8 8 8 8 8 9 9 9 9 9 9 9 9 9 9 8 8 8 7 7 7 6 6 6 6 6 5 5 5 5 5 5 5 4 4 4 4 4 4 4 4 4 4 3 3 3 3 3 3
3 3 3 3 4 4 4 4 4 4 4 5 5 5 5 5 5 5 5 5 5 5 5 5 5 5 5 5 5 4 4 4 4 4 4 4 4 4 4 4 5 5 5 5 5 5 5 6 6 6 6 7 7 7 7 8 8 8 8 8 8 8 8 9 9 9 9 9 9 9 9 8 8 8 7 7 7 6 6 6 6 6 5 5 5 5 5 5 4 4 4 4 4 4 4 4 4 4 3 3 3 3 3
3 3 3 4 4 4 4 4 4 4 5 5 5 5 5 5 5 5 5 5 5 5 5 5 5 5 5 5 5 4 4 4 4 4 4 4 4 4 4 4 4 4 4 4 4 4 4 4 4 5 5 5 6 6 6 7 7 7 8 8 8 8 8 8 8 8 8 9 9 9 9 8 8 8 8 7 7 7 7 6 6 6 6 6 5 5 5 5 5 4 4 4 4 4 4 4 4 4 4 4 3 3 3
4 4 4 4 4 4 4 4 4 4 5 5 5 5 5 4 4 4 4 4 4 4 4 5 5 5 4 4 4 4 4 4 4 4 4 4 4 4 4 4 4 4 4 4 4 4 4 4 4 4 4 4 4 4 5 5 6 6 6 7 7 7 7 8 8 8 8 8 8 8 8 8 8 8 8 8 8 7 7 7 7 6 6 6 6 6 5 5 5 5 5 4 4 4 4 4 4 4 4 4 4 3 3
4 4 4 4 4 4 4 4 4 4 4 4 4 4 4 4 4 4 4 4 4 4 4 4 4 4 4 4 4 4 4 4 4 4 4 4 4 4 4 4 4 4 4 4 4 4 4 4 4 4 3 3 3 4 4 4 4 5 5 5 6 6 6 7 7 7 8 8 8 8 8 8 8 8 8 8 8 8 7 7 7 7 7 6 6 6 6 6 5 5 5 5 4 4 4 4 4 4 4 4 4 4 3
4 4 4 4 4 4 4 4 4 4 4 4 4 4 4 4 4 4 4 4 4 4 4 4 4 4 4 4 4 4 4 4 4 4 4 4 4 4 4 4 4 4 4 4 4 4 4 4 4 4 4 4 4 3 3 3 4 4 4 4 5 5 5 6 6 7 7 7 8 8 8 8 8 8 8 8 8 8 7 7 7 7 7 7 6 6 6 6 6 6 5 5 5 5 5 4 4 4 4 4 4 4 3
5 5 5 5 5 5 5 5 5 5 5 4 4 4 4 4 4 4 4 4 4 4 4 4 4 4 4 4 4 4 4 4 4 4 4 4 4 4 4 4 4 4 4 4 4 4 4 4 4 4 4 4 4 4 4 4 3 3 3 4 4 4 4 4 5 5 6 6 7 7 8 8 8 8 8 8 8 8 8 7 7 7 7 7 7 7 7 6 6 6 6 6 6 5 5 5 5 4 4 4 4 4 4
6 6 6 6 6 6 6 5 5 5 5 5 5 5 5 5 4 4 4 5 5 5 5 5 5 5 5 5 5 5 5 5 5 4 4 4 4 4 4 4 4 4 4 4 4 4 4 5 5 5 5 4 4 4 4 4 4 4 4 3 3 4 4 4 4 4 5 5 6 6 7 8 8 8 8 8 8 8 8 8 7 7 7 7 7 7 7 7 6 6 6 6 6 6 6 6 5 5 5 5 4 4 4
7 7 7 7 7 6 6 6 6 6 6 6 6 5 5 5 5 5 5 5 5 5 5 5 5 5 5 5 5 5 5 5 5 5 5 5 5 5 5 5 5 5 4 4 4 4 4 5 5 5 5 5 5 5 5 4 4 4 4 4 4 4 4 4 4 4 4 4 5 5 6 6 7 8 8 8 8 8 8 8 8 7 7 7 7 7 7 7 7 6 6 6 6 6 6 6 6 6 6 5 5 5 4
7 7 7 7 7 7 7 7 7 7 7 7 6 6 6 6 6 6 6 6 5 5 5 6 6 6 6 6 6 6 6 6 6 6 6 6 6 6 6 6 5 5 5 5 5 5 5 5 5 5 5 5 5 5 5 5 5 4 4 4 4 4 4 4 4 4 4 4 4 5 5 5 6 6 7 8 8 8 8 8 8 8 8 7 7 7 7 7 7 7 6 6 6 6 6 6 6 6 6 6 6 5 5
7 7 7 7 7 7 7 7 7 7 7 7 7 7 7 7 7 6 6 6 6 6 6 6 6 6 6 6 6 7 7 7 7 7 7 7 7 7 7 7 6 6 6 6 6 6 6 6 6 6 6 5 5 5 5 5 5 5 5 4 4 4 4 4 4 4 4 4 4 5 5 5 5 6 6 7 7 8 8 8 8 8 8 8 8 7 7 7 7 7 7 6 6 6 6 6 6 6 6 6 6 6 6
8 8 8 8 7 7 7 7 7 7 7 7 7 7 7 7 7 7 7 7 6 6 6 6 6 6 6 6 6 7 7 7 7 7 7 7 7 7 7 7 7 7 7 7 7 7 7 6 6 6 6 6 6 5 5 5 5 5 5 5 5 5 5 5 5 5 4 5 5 5 5 5 5 6 6 6 7 7 8 8 8 9 8 8 8 8 7 7 7 7 7 7 6 6 6 6 6 6 6 6 6 6 6
10 9 9 9 9 8 8 8 8 8 8 8 8 8 8 7 7 7 7 7 7 7 6 6 6 6 6 6 7 7 7 7 7 7 7 7 7 7 7 7 7 7 7 7 7 7 7 7 7 6 6 6 6 6 6 6 5 5 5 5 5 5 5 5 5 5 5 5 5 5 5 5 6 6 6 7 7 7 8 8 8 9 9 9 8 8 8 8 7 7 7 7 7 7 6 6 6 6 6 6 6 6 6
10 10 10 10 10 10 10 9 9 9 9 9 8 8 8 8 7 7 7 7 7 7 7 6 6 6 6 6 7 7 7 7 7 7 7 7 7 7 7 7 7 7 7 7 7 7 7 7 7 7 7 6 6 6 6 6 6 6 5 5 5 5 5 4 4 4 4 5 5 5 6 6 6 7 7 7 7 8 8 8 9 9 9 9 9 9 9 8 8 8 7 7 7 7 7 6 6 6 6 6 6 6 6
10 10 10 10 10 10 10 10 10 10 10 10 9 9 9 8 8 8 8 7 7 7 7 7 7 6 6 6 7 7 7 7 7 7 7 7 7 7 7 7 7 7 7 7 7 7 7 7 7 7 7 6 6 6 6 6 6 6 5 5 5 4 4 4 4 4 4 5 6 6 7 7 8 8 8 9 9 9 9 9 10 10 10 10 10 10 10 10 9 9 9 8 8 8 8 7 7 7 6 6 6 6 6
8 9 9 9 9 9 10 10 10 10 10 10 10 10 10 9 9 9 8 8 7 7 7 7 7 7 6 7 7 7 7 7 7 7 7 7 7 7 7 7 7 7 7 7 7 7 7 7 7 7 6 6 6 6 6 6 6 5 5 5 4 4 4 4 4 4 5 5 6 7 8 9 10 10 11 11 11 11 11 11 11 11 11 11 11 11 11 11 11 11 10 10 10 10 10 9 9 9 8 8 7 7 6
7 7 7 8 8 8 8 8 9 9 9 9 9 10 10 10 10 9 9 9 8 8 7 7 7 6 6 6 7 7 7 7 7 7 7 7 7 8 8 7 7 7 7 7 7 7 7 7 6 6 6 6 6 6 6 5 5 5 5 4 4 4 4 4 4 5 5 6 6 7 9 10 11 12 12 12 12 12 12 12 12 12 12 12 12 11 11 11 11 11 11 11 11 11 11 11 11 11 11 11 10 9 9
6 6 7 7 7 7 7 7 8 8 8 8 8 9 9 9 9 9 9 9 9 8 8 7 7 6 6 6 6 7 7 7 7 7 7 7 8 8 8 8 8 7 7 7 7 7 6 6 6 6 6 5 5 5 5 5 5 5 5 5 5 5 5 5 5 5 5 6 7 8 9 10 11 12 13 13 13 13 13 12 12 12 12 12 12 12 11 11 11 11 10 10 10 10 10 11 11 11 12 12 13 13 12
6 6 6 6 7 7 7 7 7 7 7 8 8 8 8 9 9 9 9 9 9 9 8 8 7 7 6 6 6 6 6 6 7 7 7 7 8 8 8 8 8 7 7 7 7 7 6 6 6 6 5 5 5 5 5 5 5 5 5 5 5 4 4 4 4 5 5 6 7 7 9 10 11 12 13 13 13 13 12 12 12 12 12 12 12 11 11 11 11 10 9 9 8 8 7 7 7 7 8 9 10 11 12
5 5 6 6 6 7 7 7 7 7 7 8 7 7 7 8 8 8 8 9 9 9 9 8 8 7 7 6 6 6 6 6 6 6 7 7 7 7 7 8 8 7 7 7 7 7 7 6 6 6 5 5 5 5 5 5 4 4 4 4 4 4 4 4 4 4 5 5 6 7 8 10 11 12 13 13 13 13 12 12 11 11 11 11 11 11 11 11 11 10 10 9 8 7 6 5 4 3 2 2 2 3 4
4 5 5 5 6 6 6 7 7 7 8 8 8 8 7 7 7 8 8 8 8 8 8 8 8 8 7 7 6 6 6 6 6 6 6 6 7 7 7 7 7 7 7 7 7 7 7 6 6 6 6 5 5 5 5 4 4 4 4 4 4 3 3 3 3 4 4 5 6 7 8 10 11 12 13 13 13 12 12 11 11 11 10 11 11 11 11 11 11 11 10 9 8 7 6 5 3 2 -0 -2 -3 -4 -3
4 4 4 4 5 5 6 6 6 7 7 7 8 8 8 7 7 7 8 8 8 8 8 8 8 8 8 7 7 6 6 6 6 6 6 6 6 6 7 7 7 7 7 7 7 7 7 7 7 6 6 6 5 5 5 4 4 4 4 3 3 3 3 3 3 4 4 5 6 7 8 10 11 12 13 13 13 12 12 11 11 10 10 10 10 11 11 11 11 11 11 10 9 8 7 6 5 3 1 -1 -2 -4 -4
3 4 4 4 4 4 5 5 5 6 7 7 7 8 9 8 8 7 7 8 8 8 8 8 8 8 8 8 7 7 6 6 6 5 5 5 5 6 6 6 6 7 7 7 7 7 7 7 7 7 6 6 6 5 5 4 4 4 3 3 3 3 3 3 3 4 5 6 6 7 8 9 10 11 12 12 12 12 11 11 10 10 10 10 10 10 11 11 11 11 11 10 10 9 8 7 6 5 3 2 0 -0 0
3 3 3 3 4 4 4 4 4 5 6 6 6 7 8 8 8 8 8 7 7 7 8 8 8 8 9 8 8 7 7 6 6 5 5 5 5 5 5 6 6 6 7 7 7 7 8 7 7 7 7 6 6 6 5 5 4 3 3 3 3 3 3 4 4 5 5 6 6 7 7 8 9 10 11 12 12 11 10 10 10 9 9 9 9 9 10 10 11 11 11 10 10 9 8 7 6 5 4 3 2 3 4
3 3 3 3 3 3 3 3 4 4 5 5 6 6 8 8 8 8 8 8 7 7 7 8 8 8 8 8 8 8 7 6 6 5 5 5 4 5 5 5 6 6 6 7 7 7 7 7 7 7 7 7 6 6 5 4 4 3 3 3 3 3 4 4 5 5 6 6 6 6 6 7 8 9 10 11 11 11 10 10 9 9 8 8 8 9 9 9 10 10 10 9 9 8 8 7 6 6 5 5 5 6 8
3 3 3 3 3 3 3 3 3 3 4 4 5 5 7 7 8 8 8 8 8 7 7 7 7 8 8 8 8 8 7 7 6 5 5 4 4 4 4 5 5 6 6 7 7 7 7 7 7 7 7 7 6 6 5 4 3 3 3 3 3 4 4 5 5 5 6 6 6 5 5 5 6 7 9 10 10 10 10 9 9 8 8 7 7 7 8 8 8 8 8 7 7 7 7 7 7 7 7 8 10 11 13
2 2 3 3 3 3 3 3 3 3 3 3 4 5 6 7 8 8 8 8 8 8 7 7 7 7 8 8 8 8 7 7 6 5 4 4 4 4 4 4 5 6 6 7 7 7 7 7 7 7 7 7 6 5 4 3 3 2 2 3 3 4 4 5 5 6 6 6 5 5 4 4 5 6 7 8 9 10 10 9 9 8 7 7 6 6 6 7 7 7 6 6 6 6 6 7 9 10 11 13 14 15 16
2 2 3 3 3 3 3 3 3 3 3 3 3 4 5 6 7 8 9 8 8 8 8 7 7 7 8 8 8 8 7 7 6 5 5 4 4 4 4 4 5 5 6 6 7 7 7 7 7 7 7 6 6 5 4 3 3 2 2 3 3 4 4 5 6 6 6 6 6 5 4 4 4 5 6 7 8 8 9 9 8 8 7 6 6 5 5 6 6 5 5 5 5 6 7 9 11 13 15 16 16 17 17
2 2 2 3 3 3 3 4 3 3 3 3 3 4 5 6 7 8 9 9 9 9 8 8 7 7 8 8 8 8 7 7 6 6 5 4 4 4 4 4 5 5 6 6 6 6 6 6 6 6 6 6 5 5 4 3 3 3 3 3 3 4 5 5 6 6 7 7 6 5 4 4 4 4 5 6 6 7 8 8 8 7 7 6 5 5 5 5 5 5 5 5 6 8 10 12 14 15 16 16 16 15 14
2 3 3 3 3 3 4 4 4 4 4 4 4 4 4 5 7 8 9 9 9 9 9 8 8 8 8 8 8 8 8 7 6 6 5 4 4 4 4 4 5 5 6 6 6 6 6 6 6 6 6 5 5 5 4 4 3 3 3 3 4 4 5 6 6 7 7 7 7 6 5 4 4 4 4 4 5 6 7 7 7 7 7 6 6 5 5 5 5 5 5 6 8 10 12 13 14 14 14 13 13 12 11
3 3 3 3 3 3 4 4 4 4 4 4 4 4 4 5 6 8 9 10 10 10 9 9 8 8 8 8 8 8 8 7 6 6 5 4 4 4 4 4 5 5 6 6 6 5 5 5 5 5 5 5 5 5 4 4 4 4 4 4 4 4 5 6 6 7 7 8 7 7 6 5 4 4 3 4 5 6 7 7 7 7 7 7 6 6 6 6 6 6 7 8 9 11 12 13 13 12 11 10 10 9 8
3 3 3 4 4 4 4 4 4 4 4 4 4 4 4 5 6 7 9 10 10 10 10 9 9 9 9 9 8 8 8 7 6 5 5 4 4 3 3 4 4 5 6 6 5 5 5 5 5 5 5 5 5 5 5 5 5 5 4 4 5 5 6 6 7 7 8 8 8 8 7 6 5 4 3 4 4 6 7 7 8 8 8 7 7 7 7 7 7 8 8 10 11 11 12 11 11 10 9 9 8 7 7
4 4 4 4 4 4 4 4 4 4 4 4 4 4 4 5 6 7 9 10 11 11 10 10 9 9 9 9 9 9 8 7 6 5 5 4 4 3 3 4 4 5 5 5 5 5 5 5 5 5 5 5 5 5 5 5 5 5 5 6 6 6 6 7 7 7 8 8 8 8 7 6 5 4 3 4 5 6 7 7 8 8 8 8 8 7 8 8 8 9 10 11 11 11 11 10 9 9 8 7 7 6 6
4 4 4 5 5 5 5 4 4 4 4 4 4 4 4 4 5 7 8 10 11 11 11 10 9 9 9 9 9 9 8 7 6 5 4 4 3 3 3 4 4 5 5 5 5 5 5 5 5 5 5 5 6 6 6 6 6 7 7 7 7 7 7 7 7 8 8 9 9 8 8 6 5 4 4 4 5 6 7 8 8 8 8 8 8 8 9 9 10 10 11 11 11 10 10 9 8 8 7 6 6 6 5
4 4 5 5 5 5 5 5 4 4 4 4 4 4 4 4 5 6 8 9 11 11 11 10 10 9 9 9 9 9 8 7 6 5 4 4 3 3 4 4 4 4 5 5 5 5 5 5 6 6 6 6 7 7 7 7 7 8 8 8 8 8 8 8 8 8 8 9 9 8 7 6 5 5 5 6 6 7 7 8 8 8 8 8 9 9 9 10 10 10 10 10 10 9 9 8 8 7 6 6 6 5 5
4 4 4 5 5 5 5 5 5 4 4 4 4 4 3 4 5 6 8 9 10 11 11 11 10 9 9 9 9 8 7 7 6 5 4 4 3 3 4 4 4 4 4 5 5 5 6 6 7 7 7 8 8 8 8 8 8 9 9 9 9 9 9 8 8 8 8 8 8 8 7 6 6 6 7 7 7 7 7 8 8 8 9 9 9 9 10 10 10 9 9 8 8 8 7 7 7 7 6 6 6 5 5
4 4 4 5 5 5 5 5 4 4 4 4 4 3 3 4 5 6 8 9 10 11 11 11 10 10 9 9 8 8 7 6 5 4 4 4 4 4 4 4 4 4 5 5 6 6 7 7 8 8 8 8 8 8 8 8 9 9 9 9 9 9 9 9 8 8 8 8 8 7 7 7 8 8 9 9 8 8 8 8 8 9 9 9 9 9 9 9 8 8 7 7 7 7 7 7 7 7 6 6 6 5 5
4 4 4 4 5 5 5 5 4 4 4 4 4 4 4 4 5 6 8 10 11 11 11 11 11 10 10 9 8 7 7 6 5 4 4 4 4 4 4 4 4 5 6 6 7 8 8 9 9 9 8 8 8 8 8 8 8 9 9 10 10 10 10 9 9 8 8 8 8 8 8 9 10 10 10 10 9 9 8 8 8 9 9 9 9 9 8 7 7 6 6 6 6 6 6 6 6 6 6 6 6 6 5
4 4 4 4 4 5 5 5 4 4 4 4 4 4 4 4 5 7 8 10 11 11 11 11 11 11 10 10 9 7 7 6 5 4 4 4 4 4 4 4 5 6 7 7 8 9 10 10 10 9 8 8 7 7 7 8 8 9 9 10 10 10 10 10 9 8 8 8 8 9 10 11 11 12 12 11 10 9 9 9 9 9 9 9 8 8 7 6 6 6 6 6 6 6 6 6 6 6 7 6 6 7 7
4 4 4 4 4 4 5 5 4 4 4 4 4 4 4 4 5 7 8 9 10 11 11 11 11 11 11 10 9 8 7 6 5 4 4 4 4 4 4 5 6 7 9 9 10 11 11 11 10 9 8 7 7 7 7 8 9 9 10 10 11 11 11 10 10 9 9 9 10 11 11 12 13 12 12 11 10 10 9 9 9 8 8 8 7 6 6 5 5 5 6 6 6 6 6 6 6 7 7 7 8 9 11
4 4 4 4 4 4 4 5 5 4 4 4 4 4 4 4 6 7 9 10 10 11 11 11 11 11 11 10 10 8 7 6 5 4 4 4 4 4 4 6 7 8 10 11 12 12 11 10 9 8 7 7 8 8 8 9 9 10 10 11 11 12 11 11 11 11 10 11 11 12 12 12 12 12 11 10 10 10 9 9 8 8 7 7 6 6 5 5 5 5 6 6 6 6 6 6 7 8 8 10 12 14 16
4 4 4 4 4 4 5 5 5 5 4 4 4 4 4 5 6 7 9 10 11 11 12 12 12 11 11 11 10 8 7 6 5 5 5 5 4 4 4 6 8 10 12 13 12 11 9 7 6 6 7 7 8 9 9 10 10 11 11 12 12 13 13 12 12 12 12 12 12 12 12 11 11 10 10 10 10 10 9 9 8 7 7 6 6 5 5 5 5 5 6 6 6 6 7 7 8 10 11 14 16 19 23
4 4 4 4 4 5 5 5 5 4 4 4 4 5 5 6 7 8 9 10 11 11 12 13 13 12 10 10 9 8 7 6 5 5 5 5 5 6 6 8 9 11 12 13 12 10 8 6 5 5 6 7 8 9 10 10 11 12 12 13 13 14 14 13 13 12 12 12 11 11 10 9 9 9 9 9 10 9 9 8 7 7 6 6 5 5 5 5 5 5 6 6 6 7 8 9 11 13 15 18 22 25 28
5 4 4 4 4 4 4 4 5 4 4 4 5 5 6 7 8 9 9 10 11 11 12 13 13 13 11 10 9 8 7 6 5 4 5 5 6 7 9 10 12 13 12 11 10 9 8 8 6 5 5 5 6 7 8 9 11 12 13 14 15 15 15 14 13 12 12 11 10 9 8 8 8 8 8 9 9 9 8 7 7 6 6 6 6 6 5 5 5 5 6 6 7 8 10 12 14 17 20 23 26 29 31
4 4 4 4 4 4 4 4 5 5 4 5 5 5 6 7 8 9 10 10 11 12 12 12 13 13 13 10 9 8 7 6 5 5 5 6 7 9 11 11 11 11 11 10 11 10 8 10 10 8 5 5 5 5 6 9 12 13 15 16 16 16 15 13 12 11 10 9 8 8 7 7 7 7 7 8 8 7 7 7 6 6 6 6 6 6 6 6 6 6 6 7 8 10 13 16 19 22 24 27 29 30 31
5 5 4 4 4 3 4 4 4 5 5 5 5 6 7 8 8 9 10 10 11 12 13 13 12 12 12 10 9 7 7 6 6 6 6 6 9 11 13 11 10 10 9 6 8 12 12 9 10 11 10 7 7 7 8 11 13 15 16 16 16 15 13 12 10 9 8 8 7 7 7 7 7 7 7 7 7 6 6 6 6 6 6 6 6 6 6 6 6 6 7 8 10 13 17 21 24 26 28 29 30 29 29
5 5 4 4 3 3 4 4 4 5 5 6 6 7 7 8 8 9 10 11 11 12 12 13 12 11 10 10 8 7 7 7 6 6 7 8 8 8 10 13 13 12 10 4 4 8 13 11 10 10 11 9 9 10 11 13 15 16 17 17 15 14 11 9 8 7 7 7 7 7 7 7 7 7 6 6 6 6 6 6 6 6 6 6 6 6 6 6 6 7 8 10 13 16 21 25 27 29 29 28 28 27 25
5 4 4 3 3 3 4 4 5 5 6 6 7 8 8 8 9 9 10 11 11 12 12 12 11 10 8 8 8 8 7 8 7 6 7 9 8 7 7 10 11 12 13 10 9 9 12 12 12 11 9 9 10 12 14 16 17 18 18 16 13 11 9 7 7 7 7 7 7 7 7 6 6 6 6 6 6 6 6 6 6 7 6 6 6 6 6 6 7 8 10 12 16 20 24 27 29 29 28 26 25 24 23
4 3 3 3 3 3 3 4 5 6 6 7 8 8 9 9 9 10 11 11 11 11 11 11 11 10 9 7 7 8 8 8 8 7 6 8 9 8 4 4 5 7 10 13 15 15 13 11 10 11 13 10 11 13 16 18 19 19 17 14 11 8 6 6 6 6 7 7 7 6 6 6 6 6 6 6 6 6 6 6 7 7 7 7 6 6 7 7 9 10 12 15 19 23 27 28 28 27 25 23 22 22 22
4 3 2 2 3 3 4 5 6 7 7 8 9 9 9 10 10 11 11 11 11 11 11 10 10 10 10 8 7 7 7 8 8 9 8 7 7 7 5 5 6 6 5 9 11 13 16 12 10 10 14 13 14 16 18 19 19 17 14 11 8 6 5 5 6 6 6 6 6 6 6 6 6 6 6 6 6 6 7 7 7 7 7 7 7 7 7 9 10 13 15 19 22 26 28 28 27 25 22 22 21 22 23
3 2 2 2 3 4 5 6 7 8 9 9 10 10 10 10 11 11 11 10 11 11 10 9 9 9 10 9 7 6 6 7 8 9 11 8 6 4 6 8 9 9 9 9 9 9 12 13 13 13 14 14 15 17 20 20 17 14 11 8 6 5 4 5 5 6 6 6 6 6 6 6 6 6 6 6 7 7 7 7 8 8 8 7 8 8 9 11 13 15 18 22 25 27 28 27 25 23 21 21 22 23 26
2 2 2 3 4 5 6 8 9 10 10 11 11 11 11 11 11 11 10 10 10 10 9 9 9 9 9 8 7 5 5 6 8 8 9 9 8 7 6 8 10 11 11 11 11 10 10 12 14 15 15 15 14 14 17 19 16 12 8 7 6 5 4 4 5 6 6 6 6 6 6 6 6 7 7 7 7 7 8 8 8 8 8 8 9 9 11 13 15 18 21 23 25 26 26 24 22 21 21 22 24 26 28
2 2 3 4 6 7 9 10 11 11 12 12 12 12 11 11 11 10 10 10 9 9 8 8 8 8 8 7 5 4 4 6 8 7 4 6 9 11 9 9 10 11 11 11 12 12 13 14 14 13 13 13 13 14 15 15 14 11 8 6 5 5 5 5 5 5 6 6 6 6 6 6 7 7 8 8 8 8 9 9 9 9 9 9 10 11 13 15 18 20 23 24 25 24 23 21 21 21 22 24 26 28 30
Height
5851 5850 5850 5850 5849 5849 5848 5848 5848 5847 5847 5846 5846 5846 5845 5845 5845 5844 5844 5844 5843 5843 5843 5842 5842 5841 5841 5841 5840 5840 5840 5839 5839 5839 5839 5838 5838 5838 5838 5838 5837 5837 5837 5837 5837 5837 5836 5836 5836 5836 5836 5836 5836 5836 5835 5835 5835 5835 5835 5835 5835 5835 5835 5835 5835 5835 5835 5836 5836 5836 5837 5837 5838 5838 5839 5839 5839 5839 5839 5839 5839 5839 5839 5840 5840 5840 5840 5841 5841 5842 5842 5843 5843 5844 5844 5845 5846 5846 5847 5848 5849 5850 5850
5850 5849 5849 5849 5848 5848 5847 5847 5846 5846 5845 5845 5845 5844 5844 5844 5843 5843 5842 5842 5842 5841 5841 5841 5840 5840 5839 5839 5839 5839 5838 5838 5837 5837 5837 5836 5836 5836 5836 5835 5835 5835 5835 5835 5834 5834 5834 5834 5834 5834 5833 5833 5833 5833 5833 5833 5833 5833 5833 5833 5833 5833 5832 5832 5832 5832 5833 5833 5833 5833 5834 5834 5834 5835 5835 5836 5836 5836 5837 5837 5837 5837 5837 5837 5837 5838 5838 5838 5838 5839 5839 5840 5840 5841 5841 5842 5843 5844 5844 5845 5846 5847 5848
5849 5848 5848 5848 5847 5846 5846 5846 5845 5845 5844 5844 5844 5843 5843 5842 5842 5841 5841 5840 5840 5840 5839 5839 5839 5838 5838 5837 5837 5837 5836 5836 5835 5835 5835 5834 5834 5834 5834 5833 5833 5833 5833 5832 5832 5832 5832 5831 5831 5831 5831 5831 5830 5830 5830 5830 5830 5830 5830 5830 5830 5830 5830 5830 5830 5830 5830 5830 5830 5830 5830 5831 5831 5831 5832 5832 5833 5833 5834 5834 5834 5834 5835 5835 5835 5835 5835 5835 5835 5836 5836 5837 5837 5838 5839 5839 5840 5840 5841 5842 5843 5843 5844
5848 5847 5847 5846 5846 5845 5845 5844 5844 5844 5843 5843 5842 5842 5841 5841 5840 5840 5839 5839 5839 5838 5838 5837 5837 5836 5836 5836 5835 5835 5834 5834 5834 5833 5833 5832 5832 5832 5831 5831 5831 5830 5830 5830 5830 5829 5829 5829 5829 5829 5828 5828 5828 5828 5828 5827 5827 5827 5827 5827 5827 5827 5827 5827 5827 5827 5827 5827 5827 5827 5828 5828 5828 5828 5829 5829 5829 5829 5830 5830 5831 5831 5832 5832 5832 5833 5833 5833 5833 5833 5833 5834 5834 5834 5835 5836 5837 5837 5838 5839 5839 5840 5841
5846 5846 5846 5845 5844 5844 5844 5843 5843 5842 5842 5841 5841 5840 5840 5839 5839 5838 5838 5837 5837 5836 5836 5835 5835 5835 5834 5834 5834 5833 5833 5832 5832 5831 5831 5830 5830 5829 5829 5829 5829 5828 5828 5828 5827 5827 5827 5827 5826 5826 5826 5825 5825 5825 5825 5825 5825 5824 5824 5824 5824 5824 5824 5825 5825 5824 5824 5824 5824 5824 5825 5825 5825 5825 5825 5826 5826 5826 5826 5827 5827 5828 5828 5829 5829 5829 5830 5830 5830 5830 5831 5831 5831 5831 5832 5832 5833 5834 5834 5835 5836 5837 5838
5845 5845 5844 5844 5844 5843 5842 5842 5841 5841 5840 5840 5839 5839 5838 5838 5837 5837 5836 5836 5835 5835 5834 5834 5833 5833 5832 5832 5832 5831 5831 5830 5830 5829 5829 5829 5828 5828 5827 5827 5826 5826 5826 5825 5825 5825 5824 5824 5824 5824 5823 5823 5823 5823 5822 5822 5822 5822 5822 5822 5822 5822 5822 5822 5822 5822 5822 5822 5822 5822 5822 5822 5822 5822 5822 5823 5823 5823 5823 5824 5824 5824 5824 5825 5825 5826 5826 5827 5827 5828 5828 5828 5828 5829 5829 5829 5829 5830 5831 5832 5833 5834 5834
5844 5844 5843 5843 5842 5842 5841 5840 5840 5839 5839 5838 5838 5837 5837 5836 5836 5835 5834 5834 5834 5833 5832 5832 5831 5831 5830 5830 5829 5829 5829 5828 5828 5827 5827 5826 5826 5826 5825 5825 5824 5824 5824 5823 5823 5823 5822 5822 5822 5821 5821 5821 5820 5820 5820 5819 5819 5819 5819 5819 5819 5819 5819 5819 5819 5819 5819 5819 5819 5819 5819 5819 5819 5819 5819 5819 5819 5820 5820 5820 5820 5821 5821 5821 5822 5822 5823 5823 5824 5824 5825 5825 5825 5826 5826 5826 5826 5827 5827 5828 5829 5830 5831
5843 5842 5842 5841 5841 5840 5840 5839 5839 5838 5837 5837 5836 5835 5835 5834 5834 5834 5833 5832 5832 5831 5831 5830 5829 5829 5829 5828 5828 5827 5827 5826 5826 5825 5825 5824 5824 5824 5823 5823 5822 5822 5821 5821 5821 5820 5820 5819 5819 5819 5819 5818 5818 5818 5817 5817 5817 5816 5816 5816 5816 5816 5815 5815 5815 5816 5816 5816 5816 5816 5816 5816 5816 5816 5816 5816 5816 5817 5817 5817 5817 5817 5818 5818 5818 5818 5819 5819 5820 5820 5821 5822 5822 5823 5823 5823 5823 5824 5824 5824 5825 5826 5827
5842 5841 5840 5840 5839 5839 5839 5838 5837 5836 5836 5835 5834 5834 5833 5833 5832 5832 5831 5830 5830 5829 5829 5828 5828 5827 5827 5826 5825 5825 5824 5824 5824 5823 5823 5823 5822 5822 5821 5821 5820 5820 5819 5819 5819 5818 5818 5817 5817 5816 5816 5816 5815 5815 5815 5814 5814 5814 5814 5813 5813 5813 5813 5812 5812 5812 5812 5812 5813 5813 5813 5813 5813 5813 5813 5813 5813 5813 5813 5814 5814 5814 5814 5814 5814 5815 5815 5815 5816 5816 5817 5818 5818 5819 5819 5820 5820 5820 5821 5821 5821 5822 5823
5840 5839 5839 5839 5838 5838 5837 5836 5835 5835 5834 5834 5833 5832 5831 5831 5830 5829 5829 5829 5828 5827 5827 5826 5826 5825 5824 5824 5824 5823 5823 5822 5822 5821 5821 5820 5820 5819 5819 5819 5818 5818 5817 5817 5816 5816 5815 5815 5814 5814 5814 5814 5813 5813 5812 5812 5811 5811 5811 5810 5810 5810 5810 5809 5809 5809 5809 5809 5809 5809 5809 5809 5809 5809 5809 5809 5809 5810 5810 5810 5810 5810 5810 5811 5811 5811 5811 5812 5812 5813 5813 5814 5814 5815 5815 5816 5817 5817 5818 5818 5818 5819 5819
5839 5838 5837 5837 5836 5836 5835 5834 5834 5833 5833 5832 5831 5830 5830 5829 5828 5828 5827 5826 5826 5825 5825 5824 5824 5823 5823 5822 5821 5821 5820 5820 5819 5819 5819 5818 5818 5817 5817 5816 5816 5815 5815 5815 5814 5814 5813 5813 5812 5812 5811 5811 5810 5810 5809 5809 5809 5808 5808 5808 5807 5807 5807 5806 5806 5806 5806 5806 5806 5806 5806 5806 5806 5806 5806 5806 5806 5806 5806 5806 5807 5807 5807 5807 5807 5807 5808 5808 5808 5809 5809 5809 5810 5811 5811 5812 5813 5813 5814 5814 5815 5815 5816
5837 5836 5836 5835 5834 5834 5833 5833 5832 5831 5831 5830 5829 5829 5828 5827 5826 5826 5825 5824 5824 5823 5823 5822 5821 5821 5820 5820 5819 5819 5818 5818 5817 5817 5816 5816 5815 5815 5814 5814 5814 5813 5813 5812 5812 5811 5811 5810 5809 5809 5809 5808 5808 5807 5807 5806 5806 5805 5805 5804 5804 5804 5804 5803 5803 5803 5803 5802 5802 5803 5803 5802 5802 5802 5802 5803 5803 5803 5803 5803 5803 5803 5803 5803 5803 5804 5804 5804 5804 5805 5805 5805 5806 5807 5807 5808 5809 5809 5810 5810 5811 5812 5812
5836 5835 5834 5834 5833 5832 5831 5831 5830 5829 5829 5828 5827 5827 5826 5825 5824 5824 5823 5822 5822 5821 5820 5819 5819 5819 5818 5817 5817 5816 5816 5815 5815 5814 5814 5813 5813 5812 5812 5811 5811 5810 5810 5809 5809 5809 5808 5807 5807 5806 5806 5805 5805 5804 5804 5804 5803 5802 5802 5802 5801 5801 5801 5800 5800 5799 5799 5799 5799 5799 5799 5799 5799 5799 5799 5799 5799 5799 5799 5799 5799 5799 5799 5799 5799 5799 5800 5800 5800 5801 5801 5801 5802 5802 5803 5803 5804 5804 5805 5806 5807 5808 5808
5834 5833 5833 5832 5831 5830 5829 5829 5828 5827 5827 5826 5825 5824 5824 5823 5822 5822 5821 5820 5819 5819 5818 5817 5817 5816 5815 5815 5814 5814 5813 5813 5812 5812 5811 5811 5810 5809 5809 5808 5808 5807 5807 5806 5806 5805 5805 5804 5804 5803 5803 5802 5802 5801 5801 5800 5800 5799 5799 5799 5798 5798 5797 5797 5797 5796 5796 5796 5796 5795 5795 5795 5795 5795 5795 5795 5795 5795 5795 5795 5795 5795 5795 5795 5796 5796 5796 5796 5796 5797 5797 5797 5798 5798 5799 5799 5799 5800 5801 5801 5802 5803 5804
5832 5832 5831 5830 5829 5829 5828 5827 5826 5825 5824 5824 5823 5822 5821 5821 5820 5819 5819 5818 5817 5816 5816 5815 5814 5814 5813 5812 5812 5811 5811 5810 5809 5809 5809 5808 5807 5807 5806 5805 5805 5804 5804 5803 5803 5802 5802 5801 5801 5800 5799 5799 5799 5798 5798 5797 5797 5796 5796 5795 5795 5794 5794 5794 5793 5793 5793 5792 5792 5792 5792 5791 5791 5791 5791 5791 5791 5791 5791 5791 5791 5791 5791 5791 5792 5792 5792 5792 5792 5793 5793 5793 5794 5794 5794 5795 5795 5796 5796 5797 5797 5798 5799
5830 5830 5829 5828 5827 5827 5826 5825 5824 5824 5823 5822 5821 5820 5819 5819 5818 5817 5816 5816 5815 5814 5813 5813 5812 5811 5810 5810 5809 5809 5808 5807 5807 5806 5805 5805 5804 5804 5803 5802 5802 5801 5800 5800 5799 5799 5798 5798 5797 5797 5796 5795 5795 5794 5794 5794 5793 5793 5792 5792 5791 5791 5790 5790 5789 5789 5789 5789 5788 5788 5788 5788 5787 5787 5787 5787 5787 5787 5787 5787 5787 5787 5787 5787 5787 5788 5788 5788 5788 5789 5789 5789 5789 5790 5790 5790 5791 5791 5792 5792 5793 5794 5794
5828 5828 5827 5826 5825 5825 5824 5823 5823 5822 5821 5820 5819 5818 5817 5816 5816 5815 5814 5813 5813 5812 5811 5810 5809 5809 5808 5807 5806 5806 5805 5804 5804 5803 5803 5802 5801 5801 5800 5799 5799 5798 5797 5797 5796 5795 5795 5794 5794 5793 5793 5792 5791 5791 5790 5790 5789 5789 5789 5788 5787 5787 5787 5786 5786 5785 5785 5784 5784 5784 5784 5784 5783 5783 5783 5783 5783 5783 5783 5783 5783 5783 5783 5783 5783 5783 5783 5783 5784 5784 5784 5784 5785 5785 5786 5786 5786 5787 5787 5788 5788 5789 5789
5826 5826 5825 5824 5823 5823 5822 5821 5820 5819 5819 5818 5817 5816 5815 5814 5814 5813 5812 5811 5810 5809 5809 5808 5807 5806 5805 5804 5804 5803 5802 5801 5801 5800 5799 5799 5798 5797 5797 5796 5795 5795 5794 5793 5793 5792 5791 5791 5790 5789 5789 5788 5788 5787 5786 5786 5785 5785 5784 5784 5784 5783 5783 5782 5782 5781 5781 5780 5780 5780 5780 5779 5779 5779 5779 5778 5778 5778 5778 5778 5778 5778 5778 5778 5778 5778 5778 5779 5779 5779 5779 5779 5780 5780 5781 5781 5782 5782 5783 5783 5784 5784 5785
5824 5824 5823 5822 5821 5820 5819 5819 5818 5817 5817 5816 5815 5814 5813 5812 5811 5810 5809 5809 5808 5807 5806 5805 5804 5803 5802 5801 5801 5800 5799 5798 5798 5797 5796 5795 5794 5794 5793 5793 5792 5791 5790 5790 5789 5789 5788 5787 5786 5785 5785 5784 5784 5783 5783 5782 5781 5781 5780 5780 5779 5779 5779 5778 5778 5777 5777 5776 5776 5775 5775 5775 5774 5774 5774 5774 5774 5774 5773 5773 5773 5773 5773 5773 5773 5773 5773 5774 5774 5774 5774 5774 5775 5775 5776 5776 5777 5777 5778 5778 5779 5779 5780
5823 5822 5821 5820 5819 5818 5817 5816 5815 5815 5814 5813 5812 5811 5811 5810 5809 5808 5807 5806 5805 5804 5803 5802 5801 5800 5799 5799 5798 5797 5796 5795 5794 5794 5793 5792 5791 5790 5789 5789 5788 5788 5787 5786 5785 5785 5784 5783 5783 5782 5781 5780 5780 5779 5779 5778 5777 5777 5777 5776 5775 5775 5774 5774 5774 5773 5773 5772 5772 5771 5770 5770 5770 5769 5769 5769 5769 5769 5768 5768 5768 5768 5768 5768 5768 5768 5768 5768 5769 5769 5769 5769 5769 5770 5770 5771 5772 5772 5773 5773 5774 5774 5775
5820 5819 5819 5818 5817 5816 5815 5814 5813 5812 5811 5810 5809 5809 5808 5807 5806 5805 5804 5804 5803 5802 5800 5799 5799 5798 5797 5796 5795 5794 5793 5792 5791 5790 5789 5789 5788 5787 5786 5785 5784 5784 5783 5782 5781 5781 5780 5779 5779 5778 5777 5776 5776 5775 5774 5774 5774 5773 5772 5772 5771 5771 5770 5770 5769 5769 5769 5768 5767 5767 5766 5765 5765 5765 5764 5764 5764 5763 5763 5763 5763 5763 5763 5763 5763 5763 5763 5763 5763 5763 5764 5764 5764 5764 5764 5765 5766 5766 5767 5768 5768 5769 5769
5818 5817 5816 5815 5814 5814 5813 5812 5811 5810 5809 5808 5807 5806 5805 5804 5803 5802 5801 5800 5799 5799 5798 5797 5796 5795 5794 5793 5791 5790 5789 5789 5788 5787 5786 5785 5784 5783 5782 5781 5781 5780 5779 5778 5778 5777 5776 5775 5774 5774 5773 5772 5772 5771 5770 5770 5769 5769 5768 5768 5767 5767 5766 5765 5765 5764 5764 5764 5763 5762 5761 5761 5760 5760 5759 5759 5759 5758 5758 5758 5757 5757 5757 5757 5757 5757 5757 5757 5757 5758 5758 5758 5759 5759 5759 5760 5760 5760 5761 5762 5762 5763 5764
5816 5815 5814 5813 5812 5811 5810 5809 5808 5807 5806 5805 5804 5803 5802 5801 5800 5799 5799 5798 5797 5796 5795 5794 5793 5792 5790 5789 5788 5787 5786 5785 5784 5783 5782 5781 5781 5779 5779 5778 5777 5776 5775 5774 5774 5773 5772 5771 5770 5770 5769 5768 5768 5767 5766 5766 5765 5764 5764 5763 5763 5762 5762 5761 5760 5760 5759 5759 5758 5757 5757 5756 5755 5755 5754 5754 5753 5753 5752 5752 5751 5751 5751 5751 5751 5751 5751 5751 5751 5752 5752 5752 5753 5753 5753 5754 5754 5755 5755 5756 5756 5757 5758
5814 5813 5812 5811 5810 5809 5808 5807 5806 5804 5804 5803 5801 5800 5799 5798 5797 5796 5795 5794 5793 5792 5791 5790 5789 5789 5787 5786 5785 5784 5783 5782 5781 5779 5779 5778 5777 5776 5775 5774 5773 5772 5771 5770 5769 5769 5768 5767 5766 5765 5765 5764 5763 5763 5762 5761 5761 5760 5759 5759 5758 5758 5757 5757 5756 5755 5754 5754 5753 5752 5752 5751 5750 5749 5749 5748 5747 5747 5746 5746 5745 5745 5745 5745 5745 5745 5745 5745 5745 5745 5745 5746 5746 5747 5747 5748 5748 5749 5749 5750 5750 5751 5752
5811 5810 5809 5808 5807 5806 5805 5804 5803 5802 5801 5800 5799 5798 5796 5795 5794 5793 5792 5791 5790 5789 5788 5787 5786 5785 5784 5783 5782 5780 5779 5778 5777 5776 5775 5774 5773 5772 5771 5770 5769 5768 5767 5766 5765 5764 5764 5763 5762 5761 5760 5759 5759 5758 5758 5757 5756 5755 5755 5754 5754 5753 5753 5752 5751 5750 5750 5749 5748 5747 5746 5746 5745 5744 5743 5743 5742 5741 5741 5740 5740 5739 5739 5739 5738 5738 5738 5738 5738 5739 5739 5739 5739 5740 5740 5741 5742 5742 5743 5743 5744 5744 5745
5809 5808 5807 5806 5805 5804 5803 5802 5800 5799 5798 5797 5796 5795 5794 5792 5791 5790 5789 5788 5787 5785 5784 5784 5783 5781 5780 5779 5778 5777 5776 5775 5774 5772 5771 5770 5769 5768 5767 5766 5765 5764 5763 5762 5761 5760 5759 5759 5758 5757 5756 5755 5754 5754 5753 5752 5751 5751 5750 5749 5749 5748 5748 5747 5746 5745 5744 5744 5743 5742 5741 5740 5739 5739 5738 5737 5736 5735 5735 5734 5734 5733 5733 5732 5732 5731 5731 5731 5731 5732 5732 5732 5732 5733 5734 5734 5734 5735 5736 5737 5737 5738 5739
5807 5805 5804 5803 5802 5801 5800 5799 5798 5797 5795 5794 5793 5792 5790 5789 5788 5787 5786 5784 5783 5782 5781 5780 5779 5778 5777 5775 5774 5773 5772 5771 5770 5769 5767 5766 5765 5764 5762 5761 5760 5759 5759 5758 5757 5756 5755 5754 5753 5752 5751 5751 5750 5749 5748 5747 5746 5746 5745 5744 5744 5743 5742 5742 5741 5740 5739 5738 5737 5736 5735 5734 5734 5733 5732 5731 5730 5729 5729 5728 5728 5727 5726 5725 5725 5724 5724 5724 5724 5724 5724 5724 5725 5725 5726 5726 5727 5728 5729 5729 5730 5731 5732
5804 5803 5802 5801 5800 5799 5797 5796 5795 5794 5793 5791 5790 5789 5788 5786 5785 5784 5782 5781 5780 5779 5777 5776 5775 5774 5773 5772 5770 5769 5768 5767 5766 5764 5763 5762 5761 5759 5758 5757 5756 5755 5754 5753 5752 5751 5750 5749 5749 5748 5747 5746 5745 5744 5743 5742 5741 5740 5739 5739 5738 5738 5737 5736 5735 5734 5733 5732 5731 5730 5729 5729 5728 5727 5726 5725 5724 5723 5722 5722 5721 5720 5719 5718 5718 5718 5717 5717 5716 5716 5716 5717 5717 5718 5718 5719 5719 5719 5720 5721 5722 5723 5724
5802 5801 5799 5799 5797 5796 5795 5794 5792 5791 5790 5789 5787 5786 5784 5783 5782 5780 5779 5778 5776 5775 5774 5773 5771 5770 5769 5768 5766 5765 5764 5763 5762 5760 5759 5758 5757 5755 5754 5753 5752 5751 5749 5749 5747 5746 5745 5744 5744 5743 5742 5741 5740 5739 5738 5737 5736 5735 5734 5733 5732 5732 5731 5730 5729 5728 5727 5726 5725 5724 5723 5722 5721 5720 5719 5718 5717 5717 5716 5715 5714 5713 5712 5711 5711 5710 5709 5709 5709 5709 5709 5709 5709 5709 5709 5710 5710 5711 5711 5712 5713 5714 5715
5799 5798 5797 5796 5794 5793 5792 5791 5789 5788 5787 5785 5784 5783 5781 5780 5779 5777 5776 5774 5773 5772 5770 5769 5768 5766 5765 5764 5762 5761 5760 5759 5757 5756 5755 5754 5752 5751 5750 5749 5747 5746 5745 5744 5743 5742 5740 5739 5739 5738 5737 5736 5735 5734 5733 5732 5730 5729 5729 5727 5726 5726 5725 5724 5723 5722 5721 5720 5719 5718 5717 5716 5715 5714 5713 5712 5710 5709 5709 5708 5707 5706 5705 5704 5703 5702 5701 5701 5701 5701 5701 5700 5701 5701 5701 5701 5702 5702 5702 5703 5704 5705 5706
5797 5796 5794 5793 5792 5790 5789 5788 5786 5785 5784 5782 5781 5779 5778 5777 5775 5774 5773 5771 5770 5768 5767 5766 5764 5763 5761 5760 5759 5757 5756 5754 5753 5752 5750 5749 5748 5747 5746 5744 5743 5742 5741 5739 5738 5737 5735 5734 5733 5732 5731 5730 5729 5729 5728 5726 5725 5724 5723 5721 5720 5719 5718 5717 5716 5715 5714 5713 5712 5711 5710 5709 5708 5707 5706 5704 5704 5703 5702 5701 5700 5699 5698 5697 5696 5695 5694 5693 5693 5693 5693 5693 5693 5693 5693 5694 5694 5694 5694 5694 5695 5696 5697
5794 5793 5792 5790 5789 5788 5786 5785 5784 5782 5781 5779 5778 5776 5775 5774 5772 5770 5769 5768 5766 5765 5764 5762 5761 5759 5758 5756 5755 5754 5752 5750 5749 5748 5746 5745 5744 5743 5741 5740 5739 5737 5736 5735 5733 5732 5731 5729 5728 5727 5726 5725 5724 5723 5722 5721 5719 5718 5717 5716 5714 5713 5712 5711 5710 5709 5708 5707 5706 5704 5704 5702 5701 5700 5699 5698 5696 5695 5694 5694 5693 5692 5690 5689 5688 5687 5686 5686 5685 5685 5686 5685 5686 5686 5685 5685 5685 5685 5686 5686 5686 5686 5687
5792 5790 5789 5788 5786 5785 5783 5782 5780 5779 5778 5776 5774 5773 5771 5770 5769 5767 5766 5764 5763 5761 5760 5759 5757 5756 5754 5753 5751 5750 5748 5747 5745 5744 5742 5741 5739 5738 5737 5736 5734 5733 5731 5730 5729 5727 5726 5724 5723 5722 5720 5719 5718 5717 5716 5715 5714 5713 5711 5710 5708 5707 5706 5704 5704 5702 5701 5700 5699 5698 5697 5696 5694 5693 5692 5691 5689 5688 5687 5686 5685 5684 5683 5682 5681 5680 5679 5679 5678 5678 5678 5678 5678 5678 5678 5677 5677 5677 5677 5678 5678 5678 5678
5789 5788 5786 5785 5784 5782 5780 5779 5777 5776 5774 5773 5771 5770 5768 5767 5765 5764 5762 5761 5759 5758 5757 5755 5754 5752 5751 5749 5748 5746 5745 5743 5741 5739 5738 5736 5735 5734 5733 5731 5730 5728 5727 5725 5724 5723 5721 5719 5718 5716 5715 5714 5713 5712 5710 5709 5708 5707 5705 5704 5703 5701 5700 5699 5697 5696 5695 5694 5693 5692 5691 5690 5688 5687 5685 5684 5683 5681 5680 5679 5678 5677 5676 5675 5674 5673 5672 5670 5670 5671 5671 5670 5670 5670 5670 5670 5669 5669 5669 5669 5669 5669 5669
5787 5785 5784 5782 5781 5779 5778 5776 5774 5773 5771 5770 5768 5767 5765 5764 5762 5760 5759 5757 5756 5754 5753 5752 5750 5749 5747 5746 5744 5743 5741 5739 5737 5736 5734 5732 5731 5730 5728 5727 5725 5724 5722 5721 5719 5718 5716 5715 5713 5711 5710 5709 5707 5706 5705 5704 5702 5701 5699 5698 5697 5695 5694 5693 5691 5690 5689 5688 5687 5686 5685 5684 5682 5681 5679 5677 5676 5674 5673 5672 5671 5670 5669 5668 5667 5666 5664 5664 5664 5664 5664 5663 5662 5662 5662 5662 5661 5661 5661 5660 5660 5660 5660
5784 5783 5781 5779 5778 5776 5775 5773 5772 5770 5769 5767 5765 5764 5762 5760 5759 5757 5756 5754 5753 5751 5749 5748 5747 5745 5744 5742 5740 5739 5737 5735 5734 5732 5730 5729 5727 5725 5724 5722 5721 5719 5718 5716 5714 5713 5712 5710 5708 5707 5705 5704 5702 5701 5699 5698 5697 5695 5694 5692 5691 5689 5688 5686 5685 5684 5683 5682 5681 5680 5679 5678 5676 5674 5673 5671 5669 5668 5667 5665 5664 5663 5662 5661 5660 5659 5657 5656 5656 5656 5656 5655 5655 5654 5654 5654 5653 5653 5653 5652 5652 5652 5652
5782 5780 5779 5777 5775 5774 5772 5771 5769 5768 5766 5764 5763 5761 5759 5758 5756 5754 5753 5751 5749 5748 5746 5744 5743 5741 5740 5738 5737 5735 5733 5732 5730 5728 5726 5725 5723 5721 5720 5718 5716 5715 5713 5711 5710 5709 5707 5705 5704 5702 5700 5699 5697 5695 5694 5692 5691 5689 5688 5686 5685 5683 5682 5680 5679 5678 5676 5675 5674 5673 5672 5671 5670 5668 5666 5664 5663 5661 5660 5659 5658 5656 5655 5654 5653 5651 5650 5649 5648 5648 5648 5647 5646 5646 5646 5646 5645 5645 5644 5644 5644 5644 5643
5779 5778 5776 5774 5773 5771 5769 5768 5766 5765 5763 5761 5760 5758 5756 5754 5753 5751 5749 5748 5746 5744 5743 5741 5739 5738 5736 5734 5733 5731 5729 5728 5726 5724 5722 5721 5719 5717 5716 5714 5712 5710 5709 5707 5705 5704 5702 5700 5699 5697 5695 5694 5692 5690 5689 5687 5685 5684 5682 5680 5679 5677 5676 5674 5673 5671 5670 5669 5668 5667 5666 5664 5663 5661 5659 5658 5656 5654 5653 5652 5651 5649 5649 5647 5646 5644 5642 5641 5640 5640 5640 5639 5639 5639 5638 5638 5637 5637 5636 5636 5635 5635 5635
5776 5775 5773 5772 5770 5769 5767 5765 5764 5762 5760 5759 5757 5755 5753 5751 5750 5748 5746 5744 5743 5741 5739 5737 5736 5734 5732 5730 5729 5727 5725 5724 5722 5720 5719 5717 5715 5713 5711 5710 5708 5706 5704 5702 5701 5699 5697 5696 5694 5692 5690 5689 5687 5685 5684 5682 5680 5678 5676 5674 5673 5671 5670 5668 5667 5665 5664 5662 5661 5660 5659 5658 5656 5654 5653 5651 5649 5648 5646 5645 5644 5643 5641 5640 5639 5637 5635 5634 5633 5632 5632 5631 5631 5631 5630 5629 5629 5628 5628 5627 5627 5626 5626
5774 5772 5770 5769 5767 5766 5764 5762 5761 5759 5757 5755 5754 5752 5750 5748 5746 5745 5743 5741 5739 5737 5736 5734 5732 5730 5729 5727 5725 5723 5721 5720 5718 5716 5714 5713 5711 5709 5707 5705 5704 5702 5700 5698 5696 5694 5693 5691 5689 5687 5685 5684 5682 5680 5678 5676 5674 5672 5670 5669 5667 5665 5664 5662 5660 5659 5657 5656 5654 5653 5652 5651 5650 5648 5646 5644 5642 5641 5639 5638 5637 5636 5634 5633 5632 5630 5628 5627 5626 5625 5624 5624 5623 5623 5622 5621 5621 5620 5619 5619 5618 5617 5616
5771 5769 5768 5766 5764 5763 5761 5759 5758 5756 5754 5752 5750 5749 5747 5745 5743 5741 5739 5738 5736 5734 5732 5730 5729 5727 5725 5723 5721 5719 5718 5716 5714 5712 5710 5708 5706 5704 5703 5701 5699 5697 5695 5694 5692 5690 5688 5686 5684 5682 5680 5679 5677 5675 5673 5671 5669 5667 5665 5663 5661 5659 5657 5655 5654 5652 5651 5649 5648 5647 5646 5644 5643 5641 5639 5638 5636 5634 5633 5631 5630 5629 5628 5627 5625 5624 5622 5620 5619 5618 5617 5616 5615 5614 5614 5613 5612 5611 5610 5609 5608 5607 5606
5768 5766 5764 5763 5761 5759 5758 5756 5754 5752 5750 5749 5747 5745 5743 5741 5739 5738 5736 5734 5732 5730 5728 5726 5724 5723 5721 5719 5718 5716 5714 5712 5710 5708 5706 5704 5702 5700 5698 5696 5694 5693 5691 5689 5688 5686 5684 5682 5679 5677 5675 5673 5671 5669 5667 5665 5664 5661 5659 5657 5655 5653 5651 5649 5647 5646 5644 5643 5641 5640 5639 5638 5636 5635 5633 5631 5629 5628 5626 5625 5624 5623 5621 5620 5619 5617 5615 5614 5612 5610 5609 5608 5607 5606 5605 5604 5603 5602 5601 5600 5599 5597 5596
5764 5763 5761 5759 5758 5756 5754 5752 5750 5749 5747 5745 5743 5741 5739 5738 5736 5734 5732 5730 5728 5726 5724 5722 5720 5719 5717 5715 5713 5711 5709 5708 5706 5704 5702 5699 5698 5696 5694 5692 5690 5688 5687 5685 5683 5681 5679 5677 5675 5673 5670 5668 5666 5664 5662 5660 5658 5656 5654 5652 5649 5647 5645 5643 5641 5639 5638 5636 5635 5633 5632 5631 5630 5629 5627 5625 5623 5621 5620 5618 5617 5616 5615 5614 5612 5610 5609 5607 5605 5603 5602 5600 5599 5598 5597 5595 5594 5593 5591 5590 5588 5587 5585
5761 5759 5757 5756 5754 5752 5750 5749 5747 5745 5743 5741 5739 5738 5736 5734 5732 5730 5728 5726 5724 5722 5720 5718 5716 5714 5713 5711 5709 5707 5705 5703 5701 5699 5697 5695 5693 5691 5689 5687 5686 5684 5682 5680 5679 5677 5675 5673 5670 5668 5665 5663 5660 5658 5656 5654 5652 5650 5648 5646 5644 5641 5639 5637 5635 5633 5631 5629 5628 5627 5625 5624 5623 5622 5621 5619 5617 5615 5614 5612 5610 5609 5608 5607 5605 5604 5602 5600 5598 5596 5594 5593 5591 5589 5588 5586 5584 5583 5581 5579 5578 5576 5574
5757 5755 5754 5752 5750 5749 5747 5745 5743 5741 5739 5737 5736 5734 5732 5730 5728 5726 5724 5722 5720 5718 5716 5714 5712 5711 5709 5707 5705 5703 5701 5699 5697 5695 5693 5691 5689 5687 5684 5683 5681 5679 5678 5676 5674 5672 5670 5668 5666 5663 5660 5658 5655 5653 5651 5649 5646 5644 5642 5640 5638 5636 5633 5631 5629 5627 5625 5623 5622 5620 5619 5618 5616 5615 5614 5613 5611 5609 5607 5606 5604 5603 5601 5600 5599 5597 5595 5593 5591 5589 5586 5584 5582 5580 5578 5576 5574 5572 5570 5568 5566 5564 5562
5754 5752 5750 5748 5747 5745 5743 5741 5739 5737 5735 5734 5732 5730 5728 5726 5724 5722 5720 5718 5716 5714 5712 5710 5708 5707 5704 5703 5700 5698 5696 5694 5692 5690 5688 5686 5684 5682 5680 5679 5677 5675 5673 5671 5669 5668 5665 5664 5661 5659 5655 5653 5650 5648 5645 5643 5640 5638 5636 5634 5632 5629 5627 5625 5623 5621 5619 5617 5615 5614 5612 5611 5610 5609 5607 5606 5604 5603 5601 5599 5598 5596 5594 5593 5591 5590 5588 5585 5583 5581 5578 5576 5573 5571 5568 5566 5564 5561 5559 5556 5554 5552 5550
5750 5748 5746 5744 5743 5741 5739 5738 5735 5734 5732 5730 5728 5726 5724 5723 5721 5719 5717 5714 5712 5710 5708 5706 5704 5703 5701 5699 5696 5694 5692 5690 5688 5686 5684 5682 5680 5678 5676 5674 5672 5671 5669 5666 5664 5662 5660 5659 5656 5654 5650 5648 5645 5642 5640 5637 5634 5632 5630 5627 5625 5623 5621 5619 5617 5615 5613 5611 5609 5607 5606 5604 5603 5602 5601 5599 5598 5596 5594 5593 5591 5589 5588 5586 5584 5583 5580 5578 5575 5572 5569 5567 5564 5561 5558 5555 5552 5549 5547 5544 5542 5539 5537
5746 5744 5743 5741 5739 5737 5736 5734 5732 5730 5728 5726 5724 5722 5721 5719 5717 5715 5713 5710 5708 5706 5704 5702 5700 5699 5697 5695 5693 5690 5688 5685 5683 5681 5679 5677 5675 5674 5672 5670 5668 5666 5664 5662 5659 5657 5655 5653 5651 5648 5645 5642 5639 5637 5634 5631 5629 5626 5624 5621 5619 5617 5615 5613 5611 5609 5607 5605 5603 5601 5599 5598 5596 5595 5594 5592 5591 5589 5588 5586 5584 5582 5580 5579 5577 5575 5573 5570 5567 5564 5560 5557 5554 5551 5548 5544 5541 5538 5534 5532 5529 5526 5524
5743 5741 5739 5737 5735 5734 5732 5730 5728 5726 5724 5722 5720 5719 5717 5715 5713 5711 5709 5706 5704 5702 5700 5698 5696 5694 5692 5690 5689 5686 5684 5681 5679 5677 5675 5673 5671 5669 5668 5667 5664 5662 5660 5658 5655 5653 5650 5648 5646 5643 5640 5637 5634 5631 5629 5626 5623 5620 5617 5615 5613 5611 5609 5607 5605 5603 5601 5599 5597 5595 5593 5591 5589 5588 5586 5585 5584 5582 5580 5579 5577 5575 5573 5571 5569 5567 5564 5562 5558 5555 5551 5548 5544 5540 5537 5533 5529 5526 5522 5519 5516 5513 5510
5739 5737 5735 5733 5731 5730 5728 5726 5724 5722 5720 5718 5716 5715 5713 5711 5709 5707 5704 5702 5700 5698 5696 5694 5692 5690 5688 5686 5684 5682 5680 5677 5675 5672 5670 5669 5667 5664 5662 5661 5660 5658 5655 5653 5651 5649 5646 5644 5642 5639 5635 5632 5629 5626 5623 5620 5617 5614 5611 5609 5607 5604 5602 5601 5599 5597 5595 5593 5590 5589 5587 5584 5582 5580 5579 5577 5575 5574 5573 5571 5569 5567 5565 5563 5561 5558 5556 5553 5550 5546 5542 5538 5534 5530 5526 5522 5518 5514 5510 5506 5502 5499 5496
5735 5733 5731 5729 5727 5726 5724 5722 5720 5718 5716 5714 5713 5711 5709 5707 5705 5703 5700 5698 5696 5694 5692 5690 5688 5686 5684 5682 5679 5677 5675 5672 5670 5668 5665 5663 5662 5661 5658 5655 5654 5653 5651 5648 5645 5643 5642 5639 5638 5635 5631 5627 5624 5620 5617 5614 5611 5608 5606 5603 5601 5599 5596 5594 5593 5590 5589 5586 5584 5582 5580 5578 5575 5573 5571 5569 5567 5566 5564 5563 5561 5559 5557 5554 5552 5549 5546 5544 5540 5537 5533 5528 5524 5519 5514 5510 5506 5502 5498 5494 5490 5486 5482
5731 5729 5727 5725 5723 5722 5720 5718 5716 5714 5712 5710 5709 5707 5705 5703 5701 5699 5696 5694 5692 5690 5688 5686 5684 5681 5679 5677 5675 5672 5670 5668 5665 5663 5661 5658 5657 5656 5654 5652 5649 5647 5646 5643 5639 5637 5636 5634 5633 5631 5628 5624 5619 5616 5613 5609 5606 5603 5600 5597 5595 5592 5590 5588 5586 5584 5582 5579 5578 5576 5574 5571 5569 5566 5564 5561 5559 5558 5556 5554 5553 5551 5548 5546 5543 5540 5537 5534 5530 5527 5523 5519 5514 5509 5504 5499 5494 5489 5486 5482 5478 5474 5470
5727 5725 5723 5721 5719 5717 5716 5714 5712 5710 5708 5706 5704 5703 5701 5699 5697 5694 5692 5690 5688 5686 5684 5682 5680 5677 5675 5673 5671 5668 5665 5663 5660 5658 5656 5654 5652 5650 5649 5648 5645 5641 5639 5638 5634 5631 5630 5629 5626 5624 5623 5620 5616 5612 5609 5605 5601 5598 5595 5592 5589 5586 5584 5582 5580 5578 5575 5573 5571 5569 5566 5564 5561 5559 5556 5554 5551 5549 5547 5545 5543 5541 5539 5536 5533 5530 5527 5523 5520 5516 5513 5509 5504 5498 5493 5487 5482 5477 5473 5470 5466 5462 5458
5723 5721 5719 5717 5715 5713 5711 5710 5708 5706 5704 5702 5700 5699 5697 5695 5693 5690 5688 5686 5684 5682 5679 5677 5675 5673 5671 5668 5666 5664 5661 5659 5656 5654 5651 5650 5648 5645 5642 5641 5639 5637 5634 5632 5629 5626 5623 5622 5620 5617 5615 5614 5611 5607 5604 5600 5596 5592 5589 5587 5584 5581 5578 5576 5574 5571 5569 5566 5564 5561 5559 5557 5554 5552 5549 5546 5544 5541 5539 5536 5534 5531 5529 5526 5523 5520 5516 5513 5509 5505 5502 5498 5493 5488 5482 5476 5470 5465 5461 5458 5454 5451 5447
5718 5716 5714 5713 5711 5709 5707 5705 5704 5702 5699 5698 5696 5694 5693 5690 5688 5686 5684 5682 5680 5678 5675 5673 5671 5669 5666 5664 5661 5659 5657 5654 5652 5650 5647 5645 5644 5641 5637 5634 5632 5631 5629 5627 5624 5621 5618 5616 5614 5611 5610 5608 5604 5601 5598 5596 5592 5588 5584 5582 5579 5575 5572 5570 5567 5564 5562 5559 5557 5554 5552 5549 5547 5544 5541 5539 5536 5533 5530 5527 5524 5521 5519 5516 5513 5509 5506 5502 5498 5494 5490 5486 5482 5477 5472 5465 5459 5454 5449 5445 5442 5439 5436
5714 5712 5710 5708 5707 5705 5703 5701 5699 5697 5695 5693 5691 5690 5688 5686 5684 5682 5679 5678 5675 5674 5671 5669 5667 5664 5662 5659 5656 5654 5652 5650 5648 5646 5644 5640 5639 5636 5634 5629 5626 5624 5622 5619 5618 5616 5613 5611 5609 5606 5604 5603 5600 5596 5592 5590 5587 5584 5580 5576 5573 5570 5567 5564 5561 5558 5555 5553 5550 5547 5544 5542 5539 5536 5534 5531 5528 5525 5521 5518 5515 5512 5509 5505 5502 5499 5495 5491 5487 5483 5479 5475 5471 5466 5461 5455 5449 5443 5438 5434 5430 5428 5424
5710 5708 5706 5704 5702 5700 5699 5697 5695 5693 5691 5689 5687 5685 5684 5682 5679 5677 5675 5673 5671 5669 5667 5665 5662 5660 5657 5655 5652 5649 5647 5645 5643 5641 5640 5637 5634 5631 5628 5625 5622 5619 5616 5613 5611 5609 5607 5605 5604 5601 5598 5597 5595 5592 5588 5584 5581 5579 5575 5572 5568 5565 5562 5558 5555 5552 5549 5546 5543 5540 5537 5534 5532 5529 5526 5523 5520 5517 5513 5509 5505 5502 5498 5495 5492 5488 5484 5480 5476 5472 5468 5463 5459 5455 5450 5445 5440 5434 5428 5423 5419 5416 5414
5706 5704 5702 5700 5698 5696 5694 5692 5690 5689 5687 5684 5683 5681 5679 5677 5675 5673 5671 5669 5667 5665 5663 5660 5658 5655 5653 5650 5648 5645 5642 5640 5638 5636 5634 5633 5630 5627 5623 5620 5618 5615 5612 5609 5607 5604 5601 5599 5597 5595 5594 5591 5589 5587 5584 5580 5576 5573 5570 5567 5564 5560 5556 5553 5549 5546 5543 5540 5537 5533 5530 5527 5524 5521 5518 5515 5511 5508 5504 5500 5496 5492 5489 5485 5481 5477 5474 5469 5465 5461 5456 5452 5448 5443 5439 5435 5430 5424 5419 5413 5409 5405 5403
5701 5699 5698 5696 5694 5692 5689 5688 5686 5684 5682 5680 5678 5676 5674 5672 5670 5669 5666 5664 5663 5660 5658 5656 5654 5651 5649 5645 5643 5640 5638 5635 5633 5631 5629 5627 5625 5623 5619 5615 5612 5610 5607 5604 5602 5599 5596 5593 5590 5589 5588 5586 5584 5583 5580 5576 5572 5569 5565 5562 5558 5555 5552 5548 5544 5540 5537 5533 5530 5527 5524 5520 5517 5514 5510 5506 5503 5499 5496 5492 5488 5483 5479 5474 5470 5467 5463 5459 5454 5450 5445 5441 5437 5432 5428 5424 5420 5415 5409 5404 5399 5395 5392
5697 5695 5693 5691 5689 5687 5685 5683 5681 5680 5678 5676 5674 5672 5670 5668 5666 5664 5662 5660 5658 5656 5654 5651 5649 5646 5644 5641 5639 5636 5634 5631 5628 5626 5624 5621 5619 5617 5615 5611 5608 5605 5602 5599 5597 5594 5591 5588 5585 5583 5581 5580 5579 5578 5575 5572 5568 5564 5560 5557 5554 5550 5547 5543 5539 5535 5531 5527 5524 5520 5517 5513 5509 5506 5502 5498 5494 5491 5487 5483 5479 5474 5469 5465 5460 5456 5452 5448 5443 5439 5435 5431 5426 5422 5418 5414 5409 5405 5400 5394 5389 5384 5381
5693 5691 5689 5687 5685 5683 5680 5679 5677 5675 5674 5672 5669 5668 5665 5664 5661 5659 5657 5655 5654 5651 5649 5647 5644 5642 5639 5637 5634 5632 5629 5626 5624 5621 5619 5616 5613 5611 5609 5607 5604 5600 5597 5594 5592 5589 5586 5584 5581 5579 5576 5574 5573 5571 5570 5567 5564 5559 5555 5552 5549 5546 5542 5538 5534 5529 5525 5522 5518 5514 5510 5506 5502 5498 5494 5490 5486 5482 5478 5474 5470 5465 5460 5455 5450 5446 5441 5437 5433 5429 5424 5420 5416 5412 5408 5404 5400 5396 5391 5386 5380 5375 5371